Regional Weather Roundup
Issued by NWS Albany, NY

Home | Current Version | Previous Version | Text Only | Print | Product List | Glossary On
Versions: 1 2 3 4 5 6 7 8 9 10 11 12 13 14 15 16 17 18 19 20 21 22 23 24 25 26 27 28 29 30 31 32 33 34 35 36 37 38 39 40 41 42 43 44 45 46 47 48 49 50
000
ASUS41 KALY 230410
RWRALY

NEW YORK STATE HOURLY WEATHER ROUNDUP
NATIONAL WEATHER SERVICE ALBANY NY
1100 PM EST SAT NOV 22 2014

NOTE: "FAIR" INDICATES FEW OR NO CLOUDS BELOW 12,000 FEET WITH NO
SIGNIFICANT WEATHER AND/OR NO OBSTRUCTIONS TO VISIBILITY.

NYZ032-033-038>043-046>054-057>066-NYZ062>081-230500-
EAST


CITY           SKY/WX    TMP DP  RH WIND       PRES   REMARKS
ALBANY         LGT RAIN  37  28  70 S10       30.09R WCI  30
GLENS FALLS    LGT RAIN  36  24  62 S10       30.04S WCI  28
POUGHKEEPSIE   CLOUDY    43  17  35 SW9G17    30.16F
NEWBURGH       MOCLDY    39  19  45 SW9       30.16F WCI  33
MONTGOMERY     CLOUDY    39  18  42 SW8       30.15S WCI  33
WHITE PLAINS   CLOUDY    42  17  36 VRB6      30.17F
ISLIP          MOCLDY    43  24  47 SW12      30.20S
NEW YORK CITY  CLOUDY    43  20  39 SW12      30.21F
CENTRAL PARK   CLOUDY    43  19  38 VRB7      30.23S
$$

NYZ005>009-017-018-044>046-055-056-230500-
CENTRAL


CITY           SKY/WX    TMP DP  RH WIND       PRES   REMARKS
FULTON         LGT RAIN  40  37  89 S7        29.99F FOG
SYRACUSE       LGT RAIN  45  39  79 SW14      30.01S
ROME           CLOUDY    36  35  96 E8        30.04S WCI  30
ELMIRA         LGT RAIN  44  34  67 W10       30.07R
BINGHAMTON     LGT RAIN  38  31  76 SW14G22   30.05S WCI  30
MONTICELLO     CLOUDY    36  25  64 CALM      30.13S
$$

NYZ026>034-041>043-230500-
NORTH


CITY           SKY/WX    TMP DP  RH WIND       PRES   REMARKS
WATERTOWN      LGT RAIN  42  37  82 S10G20    29.95S
FORT DRUM      NOT AVBL
MASSENA        CLOUDY    39  38  96 SW10      29.92S FOG     WCI  32
SARANAC LAKE   CLOUDY    37  35  92 SW9       29.89S FOG     WCI  30
PLATTSBURGH    CLOUDY    38  28  67 SE8       29.93S WCI  32
$$

NYZ001>004-010>016-019>021-230500-
WEST


CITY           SKY/WX    TMP DP  RH WIND       PRES   REMARKS
NIAGARA FALLS  CLOUDY    45  40  82 SW17G24   29.97R
BUFFALO        LGT RAIN  41  37  86 SW15      29.98S
DUNKIRK        CLOUDY    43  37  79 S17G25    29.99F
JAMESTOWN      CLOUDY    37  34  87 S10       30.02F WCI  30
WELLSVILLE     LGT RAIN  41  35  79 SW15G29   30.04S
ROCHESTER      LGT RAIN  43  40  89 SW14      29.98S
PENN YAN       LGT RAIN  43  38  82 SW14G21   30.02R
$$

             KEY
       WCI = WIND CHILL INDEX
       VSB = VISIBILITY
       HX  = HEAT INDEX
$$


USA.gov is the U.S. government's official web portal to all federal, state and local government web resources and services.